User: anonymous   Login
Location: Unspecified
(0.0000°N, 0.0000°E)
Time: 10:16:19
(UTC+00:00)
Language:

OBJECT Z - Orbit

View from above orbital plane
View from above orbital plane
View from above satellite
View from above satellite

Ground track
Ground track

The orbit data is extracted from the following two-line orbital elements,

1 43134U 18004Z   19107.83619038 +.00001225 +00000-0 +54581-4 0  9991
2 43134 097.4932 175.7544 0011236 109.6795 250.5655 15.23325393070083
Epoch (UTC): 17 April 2019 20:04:06
Eccentricity: 0.0011236
inclination: 97.4932°
perigee height: 488 km
apogee height: 503 km
right ascension of ascending node: 175.7544°
argument of perigee: 109.6795°
revolutions per day: 15.23325393
mean anomaly at epoch: 250.5655°
orbit number at epoch: 7008

The dashed part of the orbit path shows where the satellite is in the earth's shadow,  

DLR